www.pogodaiklimat.ru

Погода и климат >> Архив погоды >> Китай >> Внутренняя Монголия >> Эдзин-Ци


ПОГОДА в Эдзин-Ци

  • Прогноз погоды в Эдзин-Ци
  • Монитор погоды в Эдзин-Ци

АРХИВ ПОГОДЫ в Эдзин-Ци

Время (UTC), дата Ветер
(напр.,м/с)
 
Видим.   Явления Облачность Т
(С)
Тd
(С)
f
(%)
Тe
(С)
Тes
(С)
Комфортность P
(гПа)
Po
(гПа)
Тmin
(С)
Tmax
(С)
R
(мм)
R24
(мм)
S
(см)
03 12.03 В 4 16 км ясно +2.5 -20.8 16 -1 -1 1024.3 911.5
06 12.03 В 2 13 км ясно +8.6 -19.2 12 +8 +19 опасность
простуды
1022.4 911.2 -3.0
09 12.03 С 2 13 км ясно +10.8 -19.6 10 +10 +14 1022.0 912.6
12 12.03 СЗ 1 19 км ясно +6.7 -18.9 14 +7 +7 1025.2 912.9
15 12.03 ЮЗ 2 30 км н/о +3.8 -19.0 17 +2 +2 1025.9 913.4
18 12.03 З 2 30 км ?/? +0.9 -18.4 22 -1 -1 1025.7 914.4 +11.1
21 12.03 СЗ 2 30 км н/о -0.7 -16.5 29 -3 -3 1026.0 911.8
00 13.03 З 3 30 км ясно -3.4 -15.7 38 -8 -8 1029.1 916.3
03 13.03 З 5 30 км ясно +4.1 -14.2 25 0 +4 1030.0 917.2
06 13.03 З 3 30 км ясно +10.2 -16.1 14 +9 +18 1028.7 917.4 -3.6
09 13.03 З 3 30 км ясно +13.1 -19.1 9 +12 +15 1027.2 918.0
12 13.03 З 1 30 км ясно +9.1 -18.8 12 +10 +10 1029.6 917.2
15 13.03 С 2 18 км н/о +4.1 -20.2 15 +3 +3 1030.2 917.4
18 13.03 З 1 30 км ?/? +0.5 -18.8 22 -0 -0 1029.5 918.0 +13.3
21 13.03 штиль 0 30 км н/о -2.9 -18.5 29 -3 -3 1029.4 913.9
00 14.03 С 1 22 км ясно -3.6 -17.5 33 -5 -5 1031.5 918.8
03 14.03 Ю 1 30 км ясно +7.1 -17.0 16 +7 +17 опасность
простуды
1031.9 920.0
06 14.03 З 3 30 км ясно +11.2 -19.3 10 +10 +20 опасность
простуды
1030.9 919.5 -4.5
09 14.03 З 2 30 км ясно +14.4 -21.0 7 +15 +18 1029.5 920.6
12 14.03 штиль 0 20 км ясно +8.9 -19.0 12 +9 +9 1031.3 918.6
15 14.03 Ю 1 18 км н/о +3.6 -17.3 20 +3 +3 1030.6 917.5
18 14.03 Ю 2 30 км ?/? +4.4 -19.2 16 +3 +3 1028.3 917.9 +14.4
21 14.03 В 1 30 км н/о -0.6 -16.0 30 -2 -2 1027.6 913.2
00 15.03 В 1 30 км ясно -1.4 -16.3 31 -2 -2 1029.6 917.5
03 15.03 С 2 30 км ясно +9.5 -15.9 15 +9 +17 1028.3 917.7
06 15.03 С 1 30 км ясно +14.2 -18.2 9 +15 +28 опасность
простуды
1024.2 914.8 -3.1
09 15.03 З 2 30 км ясно +15.3 -24.2 5 +16 +19 1022.3 914.4
12 15.03 штиль 0 19 км ясно +9.9 -20.3 10 +10 +10 1024.8 913.4
15 15.03 ЮЗ 1 18 км н/о +6.0 -20.4 13 +6 +6 1024.4 912.9
18 15.03 ЮЗ 1 26 км ?/? +1.6 -18.4 21 +1 +1 1024.1 914.2 +15.9
21 15.03 З 1 30 км н/о -1.1 -17.7 27 -2 -2 1024.0 909.8
00 16.03 З 1 30 км ясно +0.5 -21.1 18 0 +1 1026.5 915.3
03 16.03 З 1 29 км ясно +10.3 -22.6 8 +11 +21 опасность
простуды
1026.3 916.2
06 16.03 З 2 30 км ясно +14.8 -24.5 5 +15 +26 опасность
простуды
1024.3 914.5 -1.4
09 16.03 З 3 30 км 6/6
[]
+16.5 -28.9 3 +16 +18 1021.8 914.4
12 16.03 Ю 1 30 км 8/8
[]
+12.4 -26.3 5 +13 +13 1022.7 912.4
15 16.03 Ю 2 30 км н/о +8.4 -24.0 8 +8 +8 1021.1 910.9
18 16.03 Ю 3 30 км ?/? +7.1 -23.7 9 +5 +5 1018.5 910.3 +16.6
21 16.03 З 2 30 км н/о +4.0 -20.3 15 +3 +3 1017.5 906.0
00 17.03 З 2 30 км ясно +2.2 -20.4 17 0 +1 1018.8 909.2
03 17.03 З 3 30 км 8/8
[]
+8.7 -20.2 11 +7 +9 1019.4 909.5
06 17.03 З 3 30 км 3/3
[]
+16.4 -21.3 6 +16 +23 1015.6 908.0 +1.7
09 17.03 З 5 28 км ясно +17.9 -20.2 6 +18 +20 1013.4 907.4
12 17.03 З 2 30 км 3/3
[]
+14.7 -17.9 9 +15 +15 1014.2 905.5
15 17.03 З 2 30 км н/о +9.8 -18.3 12 +9 +9 1014.0 905.1
18 17.03 З 3 24 км ?/? +6.6 -18.2 15 +5 +5 1011.6 904.3 +18.2
21 17.03 З 4 22 км н/о +5.6 -17.5 17 +3 +3 1009.6 899.6
00 18.03 З 2 16 км 3/3
[]
+3.6 -17.3 20 +2 +2 1010.6 902.6
03 18.03 З 3 17 км 3/3
[]
+11.1 -16.3 13 +10 +15 1010.0 902.0
06 18.03 З 3 21 км ясно +17.4 -17.2 8 +17 +27 1007.0 900.4 +3.2
09 18.03 З 2 24 км 1/1
[]
+19.6 -21.1 5 +19 +23 1003.5 899.1
12 18.03 ЮЗ 1 6000 м 3/3
[]
+15.4 -17.3 9 +16 +16 1003.6 896.4
15 18.03 Ю 1 21 км н/о +12.1 -16.5 12 +13 +13 1002.2 895.3
18 18.03 З 2 22 км ?/? +10.3 -16.9 13 +10 +10 1000.2 894.9 +20.0
21 18.03 З 3 30 км н/о +5.0 -15.0 22 +3 +3 1001.1 891.8
00 19.03 З 5 16 км 9/9 1500 м
[]
+5.5 -6.4 42 +2 +2 1004.5 897.6

 

Местоположение метеостанции Эдзин-Ци (Внутренняя Монголия, Китай): широта 41.95 долгота 101.06 высота над уровнем моря 941 м.

В архиве по умолчанию представлена погода в Эдзин-Ци за последнюю неделю. Архивные данные за месяц целиком и за предыдущие месяцы, начиная с января 2011 года, Вы можете получить, выбрав интересующий диапазон дат из раскрывающегося списка и нажав кнопку "Ввод!".


*Определитесь, кто Вы:
робот инопланетянин человек

Внимание! Время в таблицах - всемирное. Для получения местного времени необходимо прибавить поправку, которая равна 8 ч.

Смотрите также архив погоды в соседних городах и на ближайших метеорологических станциях:

Погода в Гуайцзыху (Внутренняя Монголия, Китай) (126 км)
Погода в Шинэ Уса (Монголия) (127 км)
Погода в Богде (Монголия) (313 км)
Погода в Баян Мод (Внутренняя Монголия, Китай) (317 км)
Погода в Цзюцюан (Ганьсу, Китай) (325 км)
Погода в Даланзадгаде (Монголия) (328 км)
Погода в Мазонг Шанчжэнь (Ганьсу, Китай) (334 км)
Погода в Чжанъе (Цинхай, Китай) (340 км)
Погода в Амарбуйантайане (Монголия) (353 км)
Погода в Юймэне (Ганьсу, Китай) (386 км)

Пояснения к столбцам:

Ветер - указаны скорость ветра в м/с - средняя за 10 мин, порывы в срок и между сроками (в фигурных скобках) и направление, откуда дует ветер: С - северный, СВ - северо-восточный, В - восточный, ЮВ - юго-восточный, Ю - южный, ЮЗ - юго-западный, З - западный, СЗ - северо-западный.
Видимость - горизонтальная дальность видимости в метрах или километрах. При видимости от 1 до 10 км при отсутствии осадков обычно наблюдается дымка, при ухудшении видимости до 1 км и менее - туман. В сухую погоду видимость может ухудшаться дымом, пылью или мглою.
Явления - указаны атмосферные явления, наблюдавшиеся в срок или в последний час перед сроком; фигурными скобками обозначены явления, наблюдавшиеся между сроками (за 1-3 часа до срока); квадратными скобками обозначены град или гололедные отложения с указанием их диаметра в мм.
Облачность - указаны через наклонную черту общая и нижняя облачность в баллах и высота нижней границы облаков в метрах; квадратными скобками обозначены формы облаков: Ci - перистые, Cs - перисто-слоистые, Cc - перисто-кучевые, Ac - высококучевые, As - высокослоистые, Sc - слоисто-кучевые, Ns - слоисто-дождевые, Cu - кучевые, Cb - кучево-дождевые. Подробнее классификацию облаков см. в Атласе облаков (PDF).
T - Температура воздуха - температура, измеренная на высоте 2 м над землей.
Td - Температура точки росы - температура, при понижении до которой содержащийся в воздухе водяной пар достигнет насыщения.
f - Относительная влажность воздуха - влажноcть воздуха, измеренная на высоте 2 м над землей.
Te - Эффективная температура - температура, которую ощущает одетый по сезону человек в тени. Характеристика душности погоды. При расчете учитывается влияние влажности воздуха и скорости ветра на теплоощущения человека.
Tes - Эффективная температура на солнце - температура, которую ощущает человек, с поправкой на солнечный нагрев. Характеристика знойности погоды. Зависит от высоты солнца над горизонтом, облачности и скорости ветра. Ночью, в пасмурную погоду, а также при ветре 12 м/с и более поправка равна нулю.
P - Атмосферное давление - приведенное к уровню моря атмосферное давление.
Po - Атмосферное давление - измеренное на уровне метеостанции атмосферное давление.
Tmin - Минимальная температура - минимум температуры воздуха на высоте 2 м над землей.
Tmax - Максимальная температура - максимум температуры воздуха на высоте 2 м над землей.
R - Количество осадков - Количество выпавших осадков за период времени, мм. При наведении курсора мыши на число - период времени, за который выпало указанное количество осадков.
R24 - Количество осадков - Количество выпавших осадков за 24 часа, мм.
S - Снежный покров - Высота снежного покрова, см. При наведении курсора мыши на число - состояние снежного покрова и степень покрытия местности в баллах.